Time,TemperatureF,DewpointF,PressureIn,WindDirection,WindDirectionDegrees,WindSpeedMPH,WindSpeedGustMPH,Humidity,HourlyPrecipIn,Conditions,Clouds,dailyrainin,SoftwareType,DateUTC
2013-08-20 00:02:00,65.7,60.4,30.21,SSW,210,0.0,4.6,83,0.00,SCT,,0.00,WeatherDisplay:10.37,2013-08-20 04:02:00,
2013-08-20 00:03:00,65.7,60.4,30.21,SSW,210,0.0,4.6,83,0.00,SCT,,0.00,WeatherDisplay:10.37,2013-08-20 04:03:00,
2013-08-20 00:04:00,65.7,60.4,30.27,SSW,210,0.0,0.0,83,0.00,SCT,,0.00,WeatherDisplay:10.37,2013-08-20 04:04:00,
2013-08-20 00:09:00,65.7,60.4,30.27,SSW,210,0.0,0.0,83,0.00,SCT,,0.00,WeatherDisplay:10.37,2013-08-20 04:09:00,
2013-08-20 00:14:00,65.7,60.4,30.27,SSW,210,0.0,0.0,83,0.00,SCT,,0.00,WeatherDisplay:10.37,2013-08-20 04:14:00,
2013-08-20 00:19:00,65.7,60.4,30.06,SSW,210,0.0,0.0,83,0.00,SCT,,0.00,WeatherDisplay:10.37,2013-08-20 04:19:00,
2013-08-20 00:24:00,65.7,60.4,30.06,SSW,210,0.0,0.0,83,0.00,SCT,,0.00,WeatherDisplay:10.37,2013-08-20 04:24:00,
2013-08-20 00:29:00,65.8,60.5,30.06,SSW,210,0.0,0.0,83,0.00,SCT,,0.00,WeatherDisplay:10.37,2013-08-20 04:29:00,
2013-08-20 00:34:00,65.7,60.4,30.12,SSW,210,0.0,0.0,83,0.00,SCT,,0.00,WeatherDisplay:10.37,2013-08-20 04:34:00,
2013-08-20 00:39:00,65.8,60.5,30.12,SSW,210,0.0,0.0,83,0.00,SCT,,0.00,WeatherDisplay:10.37,2013-08-20 04:39:00,
2013-08-20 00:44:00,65.5,60.2,30.12,SSW,210,0.0,0.0,83,0.00,SCT,,0.00,WeatherDisplay:10.37,2013-08-20 04:44:00,
2013-08-20 00:49:00,65.5,60.2,30.09,SSW,210,0.0,0.0,83,0.00,SCT,,0.00,WeatherDisplay:10.37,2013-08-20 04:49:00,
2013-08-20 00:54:00,65.5,60.2,30.09,SSW,210,0.0,0.0,83,0.00,SCT,,0.00,WeatherDisplay:10.37,2013-08-20 04:54:00,
2013-08-20 00:59:00,65.5,60.2,30.09,SSW,210,0.0,0.0,83,0.00,SCT,,0.00,WeatherDisplay:10.37,2013-08-20 04:59:00,
2013-08-20 01:04:00,65.5,60.2,30.09,SSW,210,0.0,0.0,83,0.00,SCT,,0.00,WeatherDisplay:10.37,2013-08-20 05:04:00,
2013-08-20 01:09:00,65.3,60.0,30.09,SSW,210,0.0,0.0,83,0.00,SCT,,0.00,WeatherDisplay:10.37,2013-08-20 05:09:00,
2013-08-20 01:14:00,65.1,59.8,30.09,SSW,210,0.0,0.0,83,0.00,SCT,,0.00,WeatherDisplay:10.37,2013-08-20 05:14:00,
2013-08-20 01:19:00,65.1,57.7,30.12,SSW,210,0.0,0.0,77,0.00,FEW,,0.00,WeatherDisplay:10.37,2013-08-20 05:19:00,
2013-08-20 01:24:00,65.1,57.7,30.12,SSW,210,0.0,0.0,77,0.00,FEW,,0.00,WeatherDisplay:10.37,2013-08-20 05:24:00,
2013-08-20 01:29:00,65.1,57.7,30.12,SSW,210,0.0,0.0,77,0.00,FEW,,0.00,WeatherDisplay:10.37,2013-08-20 05:29:00,
2013-08-20 01:34:00,64.9,57.6,30.12,SSW,210,0.0,0.0,77,0.00,FEW,,0.00,WeatherDisplay:10.37,2013-08-20 05:34:00,
2013-08-20 01:39:00,64.9,57.6,30.12,SSW,210,0.0,0.0,77,0.00,FEW,,0.00,WeatherDisplay:10.37,2013-08-20 05:39:00,
2013-08-20 01:44:00,64.9,57.6,30.12,SSW,210,0.0,0.0,77,0.00,FEW,,0.00,WeatherDisplay:10.37,2013-08-20 05:44:00,
2013-08-20 01:49:00,64.6,57.2,30.12,SSW,210,0.0,0.0,77,0.00,FEW,,0.00,WeatherDisplay:10.37,2013-08-20 05:49:00,
2013-08-20 01:54:00,64.6,57.2,30.12,SSW,210,0.0,0.0,77,0.00,FEW,,0.00,WeatherDisplay:10.37,2013-08-20 05:54:00,
2013-08-20 01:59:00,64.8,57.4,30.12,SSW,210,0.0,0.0,77,0.00,FEW,,0.00,WeatherDisplay:10.37,2013-08-20 05:59:00,
2013-08-20 02:04:00,64.6,58.3,30.12,SSW,210,0.0,0.0,80,0.00,CLR,,0.00,WeatherDisplay:10.37,2013-08-20 06:04:00,
2013-08-20 02:09:00,64.4,58.1,30.12,SSW,210,0.0,0.0,80,0.00,CLR,,0.00,WeatherDisplay:10.37,2013-08-20 06:09:00,
2013-08-20 02:14:00,64.4,58.1,30.12,SSW,210,0.0,0.0,80,0.00,CLR,,0.00,WeatherDisplay:10.37,2013-08-20 06:14:00,
2013-08-20 02:19:00,64.4,58.1,30.12,SSW,210,0.0,0.0,80,0.00,CLR,,0.00,WeatherDisplay:10.37,2013-08-20 06:19:00,
2013-08-20 02:24:00,64.4,58.1,30.12,SSW,210,0.0,0.0,80,0.00,CLR,,0.00,WeatherDisplay:10.37,2013-08-20 06:24:00,
2013-08-20 02:29:00,64.2,57.9,30.12,SSW,210,0.0,0.0,80,0.00,CLR,,0.00,WeatherDisplay:10.37,2013-08-20 06:29:00,
2013-08-20 02:34:00,64.0,57.7,30.12,SSW,210,0.0,0.0,80,0.00,CLR,,0.00,WeatherDisplay:10.37,2013-08-20 06:34:00,
2013-08-20 02:39:00,64.2,57.9,30.12,SSW,210,0.0,0.0,80,0.00,CLR,,0.00,WeatherDisplay:10.37,2013-08-20 06:39:00,
2013-08-20 02:44:00,64.2,57.9,30.12,SSW,210,0.0,0.0,80,0.00,CLR,,0.00,WeatherDisplay:10.37,2013-08-20 06:44:00,
2013-08-20 02:49:00,64.0,57.7,30.12,SSW,210,0.0,0.0,80,0.00,CLR,,0.00,WeatherDisplay:10.37,2013-08-20 06:49:00,
2013-08-20 02:54:00,63.9,57.6,30.12,SSW,210,0.0,0.0,80,0.00,CLR,,0.00,WeatherDisplay:10.37,2013-08-20 06:54:00,
2013-08-20 02:59:00,63.7,57.4,30.12,SSW,210,0.0,0.0,80,0.00,CLR,,0.00,WeatherDisplay:10.37,2013-08-20 06:59:00,
2013-08-20 03:04:00,63.5,59.2,30.12,SSW,210,0.0,0.0,86,0.00,CLR,,0.00,WeatherDisplay:10.37,2013-08-20 07:04:00,
2013-08-20 03:09:00,63.5,59.2,30.12,SSW,210,0.0,0.0,86,0.00,CLR,,0.00,WeatherDisplay:10.37,2013-08-20 07:09:00,
2013-08-20 03:14:00,63.5,59.2,30.12,SSW,210,0.0,0.0,86,0.00,CLR,,0.00,WeatherDisplay:10.37,2013-08-20 07:14:00,
2013-08-20 03:19:00,63.3,59.1,30.09,SSW,210,0.0,0.0,86,0.00,CLR,,0.00,WeatherDisplay:10.37,2013-08-20 07:19:00,
2013-08-20 03:24:00,63.5,59.2,30.09,SSW,210,0.0,0.0,86,0.00,CLR,,0.00,WeatherDisplay:10.37,2013-08-20 07:24:00,
2013-08-20 03:29:00,63.1,58.9,30.09,SSW,210,0.0,0.0,86,0.00,CLR,,0.00,WeatherDisplay:10.37,2013-08-20 07:29:00,
2013-08-20 03:34:00,63.0,58.7,30.12,SSW,210,0.0,0.0,86,0.00,CLR,,0.00,WeatherDisplay:10.37,2013-08-20 07:34:00,
2013-08-20 03:39:00,63.0,58.7,30.12,SSW,210,0.0,0.0,86,0.00,CLR,,0.00,WeatherDisplay:10.37,2013-08-20 07:39:00,
2013-08-20 03:44:00,63.1,58.9,30.12,SSW,210,0.0,0.0,86,0.00,CLR,,0.00,WeatherDisplay:10.37,2013-08-20 07:44:00,
2013-08-20 03:49:00,63.0,58.7,30.12,SSW,210,0.0,0.0,86,0.00,CLR,,0.00,WeatherDisplay:10.37,2013-08-20 07:49:00,
2013-08-20 03:54:00,63.0,58.7,30.12,SSW,210,0.0,0.0,86,0.00,CLR,,0.00,WeatherDisplay:10.37,2013-08-20 07:54:00,
2013-08-20 03:59:00,62.8,58.5,30.12,SSW,210,0.0,0.0,86,0.00,CLR,,0.00,WeatherDisplay:10.37,2013-08-20 07:59:00,
2013-08-20 04:04:00,62.6,59.3,30.12,SW,220,3.5,3.5,89,0.00,CLR,,0.00,WeatherDisplay:10.37,2013-08-20 08:04:00,
2013-08-20 04:09:00,62.2,59.0,30.12,SW,220,3.5,3.5,89,0.00,CLR,,0.00,WeatherDisplay:10.37,2013-08-20 08:09:00,
2013-08-20 04:14:00,62.2,59.0,30.12,SW,220,3.5,3.5,89,0.00,CLR,,0.00,WeatherDisplay:10.37,2013-08-20 08:14:00,
2013-08-20 04:19:00,62.4,59.1,30.12,SW,220,3.5,3.5,89,0.00,CLR,,0.00,WeatherDisplay:10.37,2013-08-20 08:19:00,
2013-08-20 04:24:00,62.2,59.0,30.12,SW,220,3.5,3.5,89,0.00,CLR,,0.00,WeatherDisplay:10.37,2013-08-20 08:24:00,
2013-08-20 04:29:00,62.2,59.0,30.12,SW,220,3.5,3.5,89,0.00,CLR,,0.00,WeatherDisplay:10.37,2013-08-20 08:29:00,
2013-08-20 04:34:00,62.2,59.0,30.12,SW,220,3.5,3.5,89,0.00,CLR,,0.00,WeatherDisplay:10.37,2013-08-20 08:34:00,
2013-08-20 04:39:00,62.1,58.8,30.12,SW,220,3.5,3.5,89,0.00,CLR,,0.00,WeatherDisplay:10.37,2013-08-20 08:39:00,
2013-08-20 04:44:00,62.4,59.1,30.12,SW,220,3.5,3.5,89,0.00,CLR,,0.00,WeatherDisplay:10.37,2013-08-20 08:44:00,
2013-08-20 04:49:00,62.4,59.1,30.12,SW,220,3.5,3.5,89,0.00,CLR,,0.00,WeatherDisplay:10.37,2013-08-20 08:49:00,
2013-08-20 04:54:00,62.2,59.0,30.12,SW,220,3.5,3.5,89,0.00,CLR,,0.00,WeatherDisplay:10.37,2013-08-20 08:54:00,
2013-08-20 04:59:00,62.1,58.8,30.12,SW,220,3.5,3.5,89,0.00,CLR,,0.00,WeatherDisplay:10.37,2013-08-20 08:59:00,
2013-08-20 05:04:00,62.1,58.8,30.12,SW,220,0.0,0.0,89,0.00,CLR,,0.00,WeatherDisplay:10.37,2013-08-20 09:04:00,
2013-08-20 05:09:00,61.9,58.6,30.12,SW,220,0.0,0.0,89,0.00,CLR,,0.00,WeatherDisplay:10.37,2013-08-20 09:09:00,
2013-08-20 05:14:00,61.7,58.4,30.12,SW,220,0.0,0.0,89,0.00,CLR,,0.00,WeatherDisplay:10.37,2013-08-20 09:14:00,
2013-08-20 05:19:00,61.7,58.4,30.12,SW,220,0.0,0.0,89,0.00,CLR,,0.00,WeatherDisplay:10.37,2013-08-20 09:19:00,
2013-08-20 05:24:00,61.5,58.2,30.12,SW,220,0.0,0.0,89,0.00,CLR,,0.00,WeatherDisplay:10.37,2013-08-20 09:24:00,
2013-08-20 05:29:00,61.3,58.1,30.12,SW,220,0.0,0.0,89,0.00,CLR,,0.00,WeatherDisplay:10.37,2013-08-20 09:29:00,
2013-08-20 05:34:00,61.5,58.2,30.15,SW,220,0.0,0.0,89,0.00,CLR,,0.00,WeatherDisplay:10.37,2013-08-20 09:34:00,
2013-08-20 05:39:00,61.3,58.1,30.15,SW,220,0.0,0.0,89,0.00,CLR,,0.00,WeatherDisplay:10.37,2013-08-20 09:39:00,
2013-08-20 05:44:00,61.5,58.2,30.15,SW,220,0.0,0.0,89,0.00,CLR,,0.00,WeatherDisplay:10.37,2013-08-20 09:44:00,
2013-08-20 05:49:00,61.7,58.4,30.68,SW,220,0.0,0.0,89,0.00,CLR,,0.00,WeatherDisplay:10.37,2013-08-20 09:49:00,
2013-08-20 05:54:00,61.5,58.2,30.68,SW,220,0.0,0.0,89,0.00,CLR,,0.00,WeatherDisplay:10.37,2013-08-20 09:54:00,
2013-08-20 05:59:00,61.7,58.4,30.68,SW,220,0.0,0.0,89,0.00,CLR,,0.00,WeatherDisplay:10.37,2013-08-20 09:59:00,
2013-08-20 06:04:00,61.5,60.4,30.57,SW,220,0.0,0.0,96,0.00,CLR,,0.00,WeatherDisplay:10.37,2013-08-20 10:04:00,
2013-08-20 06:09:00,61.7,60.5,30.57,SW,220,0.0,0.0,96,0.00,CLR,,0.00,WeatherDisplay:10.37,2013-08-20 10:09:00,
2013-08-20 06:14:00,61.7,60.5,30.57,SW,220,0.0,0.0,96,0.00,CLR,,0.00,WeatherDisplay:10.37,2013-08-20 10:14:00,
2013-08-20 06:19:00,61.5,60.4,30.54,SW,220,0.0,0.0,96,0.00,CLR,,0.00,WeatherDisplay:10.37,2013-08-20 10:19:00,
2013-08-20 06:24:00,61.3,60.2,30.54,SW,220,0.0,0.0,96,0.00,CLR,,0.00,WeatherDisplay:10.37,2013-08-20 10:24:00,
2013-08-20 06:29:00,61.3,60.2,30.54,SW,220,0.0,0.0,96,0.00,CLR,,0.00,WeatherDisplay:10.37,2013-08-20 10:29:00,
2013-08-20 06:34:00,61.3,60.2,30.54,SW,220,0.0,0.0,96,0.00,CLR,,0.00,WeatherDisplay:10.37,2013-08-20 10:34:00,
2013-08-20 06:39:00,61.0,59.8,30.54,SW,220,0.0,0.0,96,0.00,CLR,,0.00,WeatherDisplay:10.37,2013-08-20 10:39:00,
2013-08-20 06:44:00,61.5,60.4,30.54,SW,220,0.0,0.0,96,0.00,CLR,,0.00,WeatherDisplay:10.37,2013-08-20 10:44:00,
2013-08-20 06:49:00,61.3,60.2,30.54,SW,220,0.0,0.0,96,0.00,CLR,,0.00,WeatherDisplay:10.37,2013-08-20 10:49:00,
2013-08-20 06:54:00,61.2,60.0,30.54,SW,220,0.0,0.0,96,0.00,CLR,,0.00,WeatherDisplay:10.37,2013-08-20 10:54:00,
2013-08-20 06:59:00,61.5,60.4,30.54,SW,220,0.0,0.0,96,0.00,CLR,,0.00,WeatherDisplay:10.37,2013-08-20 10:59:00,
2013-08-20 07:04:00,61.5,59.5,30.54,SW,220,0.0,0.0,93,0.00,FEW,,0.00,WeatherDisplay:10.37,2013-08-20 11:04:00,
2013-08-20 07:09:00,61.3,59.3,30.54,SW,220,0.0,0.0,93,0.00,FEW,,0.00,WeatherDisplay:10.37,2013-08-20 11:09:00,
2013-08-20 07:14:00,61.3,59.3,30.54,SW,220,0.0,0.0,93,0.00,FEW,,0.00,WeatherDisplay:10.37,2013-08-20 11:14:00,
2013-08-20 07:19:00,61.5,59.5,30.54,SW,220,0.0,0.0,93,0.00,FEW,,0.00,WeatherDisplay:10.37,2013-08-20 11:19:00,
2013-08-20 07:24:00,61.7,59.7,30.54,SW,220,0.0,0.0,93,0.00,FEW,,0.00,WeatherDisplay:10.37,2013-08-20 11:24:00,
2013-08-20 07:29:00,61.5,59.5,30.54,SW,220,0.0,0.0,93,0.00,FEW,,0.00,WeatherDisplay:10.37,2013-08-20 11:29:00,
2013-08-20 07:34:00,61.7,59.7,30.57,SW,220,0.0,0.0,93,0.00,FEW,,0.00,WeatherDisplay:10.37,2013-08-20 11:34:00,
2013-08-20 07:39:00,61.9,59.8,30.57,SW,220,0.0,0.0,93,0.00,FEW,,0.00,WeatherDisplay:10.37,2013-08-20 11:39:00,
2013-08-20 07:44:00,61.9,59.8,30.57,SW,220,0.0,0.0,93,0.00,FEW,,0.00,WeatherDisplay:10.37,2013-08-20 11:44:00,
2013-08-20 07:49:00,62.2,60.2,30.54,SW,220,0.0,0.0,93,0.00,FEW,,0.00,WeatherDisplay:10.37,2013-08-20 11:49:00,
2013-08-20 07:54:00,62.4,60.4,30.54,SW,220,0.0,0.0,93,0.00,FEW,,0.00,WeatherDisplay:10.37,2013-08-20 11:54:00,
2013-08-20 07:59:00,62.6,60.5,30.54,SW,220,0.0,0.0,93,0.00,FEW,,0.00,WeatherDisplay:10.37,2013-08-20 11:59:00,
2013-08-20 08:04:00,62.6,58.4,31.16,SW,220,0.0,0.0,86,0.00,FEW,,0.00,WeatherDisplay:10.37,2013-08-20 12:04:00,
2013-08-20 08:09:00,62.6,58.4,31.16,SW,220,0.0,0.0,86,0.00,FEW,,0.00,WeatherDisplay:10.37,2013-08-20 12:09:00,
2013-08-20 08:14:00,63.0,58.7,31.16,SW,220,0.0,0.0,86,0.00,FEW,,0.00,WeatherDisplay:10.37,2013-08-20 12:14:00,
2013-08-20 08:19:00,63.1,58.9,31.16,SW,220,0.0,0.0,86,0.00,FEW,,0.00,WeatherDisplay:10.37,2013-08-20 12:19:00,
2013-08-20 08:24:00,63.1,58.9,31.16,SW,220,0.0,0.0,86,0.00,FEW,,0.00,WeatherDisplay:10.37,2013-08-20 12:24:00,
2013-08-20 08:29:00,63.5,59.2,31.16,SW,220,0.0,0.0,86,0.00,FEW,,0.00,WeatherDisplay:10.37,2013-08-20 12:29:00,
2013-08-20 08:34:00,63.7,59.4,31.33,SW,220,0.0,0.0,86,0.00,FEW,,0.00,WeatherDisplay:10.37,2013-08-20 12:34:00,
2013-08-20 08:39:00,63.9,59.6,31.33,SW,220,0.0,0.0,86,0.00,FEW,,0.00,WeatherDisplay:10.37,2013-08-20 12:39:00,
2013-08-20 08:44:00,64.0,59.8,31.33,SW,220,0.0,0.0,86,0.00,FEW,,0.00,WeatherDisplay:10.37,2013-08-20 12:44:00,
2013-08-20 08:49:00,64.2,59.9,31.07,SW,220,0.0,0.0,86,0.00,FEW,,0.00,WeatherDisplay:10.37,2013-08-20 12:49:00,
2013-08-20 08:54:00,64.6,60.3,31.07,SW,220,0.0,0.0,86,0.00,FEW,,0.00,WeatherDisplay:10.37,2013-08-20 12:54:00,
2013-08-20 08:59:00,64.8,60.5,31.07,SW,220,0.0,0.0,86,0.00,FEW,,0.00,WeatherDisplay:10.37,2013-08-20 12:59:00,
2013-08-20 09:04:00,65.1,58.1,31.13,SSW,210,3.5,3.5,78,0.00,FEW,,0.00,WeatherDisplay:10.37,2013-08-20 13:04:00,
2013-08-20 09:09:00,65.1,58.1,31.13,SSW,210,3.5,3.5,78,0.00,FEW,,0.00,WeatherDisplay:10.37,2013-08-20 13:09:00,
2013-08-20 09:14:00,65.5,58.4,31.13,SSW,210,3.5,3.5,78,0.00,FEW,,0.00,WeatherDisplay:10.37,2013-08-20 13:14:00,
2013-08-20 09:19:00,65.8,58.8,31.33,SSW,210,3.5,3.5,78,0.00,FEW,,0.00,WeatherDisplay:10.37,2013-08-20 13:19:00,
2013-08-20 09:24:00,66.2,59.1,31.33,SSW,210,3.5,3.5,78,0.00,FEW,,0.00,WeatherDisplay:10.37,2013-08-20 13:24:00,
2013-08-20 09:29:00,66.4,59.3,31.33,SSW,210,3.5,3.5,78,0.00,FEW,,0.00,WeatherDisplay:10.37,2013-08-20 13:29:00,
2013-08-20 09:34:00,66.7,59.7,31.33,SSW,210,3.5,3.5,78,0.00,FEW,,0.00,WeatherDisplay:10.37,2013-08-20 13:34:00,
2013-08-20 09:40:00,66.9,59.8,31.33,SSW,210,3.5,3.5,78,0.00,FEW,,0.00,WeatherDisplay:10.37,2013-08-20 13:40:00,
2013-08-20 09:45:00,66.9,59.8,31.33,SSW,210,3.5,3.5,78,0.00,FEW,,0.00,WeatherDisplay:10.37,2013-08-20 13:45:00,
2013-08-20 09:50:00,67.3,60.2,31.33,SSW,210,3.5,3.5,78,0.00,FEW,,0.00,WeatherDisplay:10.37,2013-08-20 13:50:00,
2013-08-20 09:55:00,67.5,60.4,31.33,SSW,210,3.5,3.5,78,0.00,FEW,,0.00,WeatherDisplay:10.37,2013-08-20 13:55:00,
2013-08-20 10:00:00,67.6,60.5,31.33,SSW,210,3.5,3.5,78,0.00,FEW,,0.00,WeatherDisplay:10.37,2013-08-20 14:00:00,
2013-08-20 10:05:00,67.8,56.9,31.33,SSW,210,0.0,0.0,68,0.00,FEW,,0.00,WeatherDisplay:10.37,2013-08-20 14:05:00,
2013-08-20 10:10:00,68.2,57.2,31.33,SSW,210,0.0,0.0,68,0.00,FEW,,0.00,WeatherDisplay:10.37,2013-08-20 14:10:00,
2013-08-20 10:15:00,68.2,57.2,31.33,SSW,210,0.0,0.0,68,0.00,FEW,,0.00,WeatherDisplay:10.37,2013-08-20 14:15:00,
2013-08-20 10:20:00,68.7,57.7,31.04,SSW,210,0.0,0.0,68,0.00,FEW,,0.00,WeatherDisplay:10.37,2013-08-20 14:20:00,
2013-08-20 10:25:00,69.1,58.1,31.04,SSW,210,0.0,0.0,68,0.00,FEW,,0.00,WeatherDisplay:10.37,2013-08-20 14:25:00,
2013-08-20 10:30:00,69.4,58.4,31.04,SSW,210,0.0,0.0,68,0.00,FEW,,0.00,WeatherDisplay:10.37,2013-08-20 14:30:00,
2013-08-20 10:35:00,69.6,58.6,30.74,SSW,210,0.0,0.0,68,0.00,FEW,,0.00,WeatherDisplay:10.37,2013-08-20 14:35:00,
2013-08-20 10:40:00,70.2,59.1,30.74,SSW,210,0.0,0.0,68,0.00,FEW,,0.00,WeatherDisplay:10.37,2013-08-20 14:40:00,
2013-08-20 10:45:00,70.3,59.3,30.74,SSW,210,0.0,0.0,68,0.00,FEW,,0.00,WeatherDisplay:10.37,2013-08-20 14:45:00,
2013-08-20 10:50:00,70.5,59.4,31.16,SSW,210,0.0,0.0,68,0.00,FEW,,0.00,WeatherDisplay:10.37,2013-08-20 14:50:00,
2013-08-20 10:55:00,70.7,59.6,31.16,SSW,210,0.0,0.0,68,0.00,FEW,,0.00,WeatherDisplay:10.37,2013-08-20 14:55:00,
2013-08-20 11:00:00,70.9,59.8,31.16,SSW,210,0.0,0.0,68,0.00,FEW,,0.00,WeatherDisplay:10.37,2013-08-20 15:00:00,
2013-08-20 11:05:00,71.2,57.5,31.10,SSW,210,0.0,0.0,62,0.00,CLR,,0.00,WeatherDisplay:10.37,2013-08-20 15:05:00,
2013-08-20 11:10:00,71.4,57.7,31.10,SSW,210,0.0,0.0,62,0.00,CLR,,0.00,WeatherDisplay:10.37,2013-08-20 15:10:00,
2013-08-20 11:15:00,71.6,57.9,31.10,SSW,210,0.0,0.0,62,0.00,CLR,,0.00,WeatherDisplay:10.37,2013-08-20 15:15:00,
2013-08-20 11:20:00,71.8,58.1,31.04,SSW,210,0.0,0.0,62,0.00,CLR,,0.00,WeatherDisplay:10.37,2013-08-20 15:20:00,
2013-08-20 11:25:00,71.8,58.1,31.04,SSW,210,0.0,0.0,62,0.00,CLR,,0.00,WeatherDisplay:10.37,2013-08-20 15:25:00,
2013-08-20 11:30:00,72.0,58.2,31.04,SSW,210,0.0,0.0,62,0.00,CLR,,0.00,WeatherDisplay:10.37,2013-08-20 15:30:00,
2013-08-20 11:35:00,72.1,58.4,30.98,SSW,210,0.0,0.0,62,0.00,CLR,,0.00,WeatherDisplay:10.37,2013-08-20 15:35:00,
2013-08-20 11:40:00,72.5,58.7,30.98,SSW,210,0.0,0.0,62,0.00,CLR,,0.00,WeatherDisplay:10.37,2013-08-20 15:40:00,
2013-08-20 11:45:00,72.5,58.7,30.98,SSW,210,0.0,0.0,62,0.00,CLR,,0.00,WeatherDisplay:10.37,2013-08-20 15:45:00,
2013-08-20 11:50:00,72.7,58.9,30.92,SSW,210,0.0,0.0,62,0.00,CLR,,0.00,WeatherDisplay:10.37,2013-08-20 15:50:00,
2013-08-20 11:55:00,72.9,59.1,30.92,SSW,210,0.0,0.0,62,0.00,CLR,,0.00,WeatherDisplay:10.37,2013-08-20 15:55:00,
2013-08-20 12:00:00,73.2,59.4,30.92,SSW,210,0.0,0.0,62,0.00,CLR,,0.00,WeatherDisplay:10.37,2013-08-20 16:00:00,
2013-08-20 12:05:00,73.6,55.9,30.89,West,260,5.8,5.8,54,0.00,FEW,,0.00,WeatherDisplay:10.37,2013-08-20 16:05:00,
2013-08-20 12:10:00,73.6,55.9,30.89,West,260,5.8,5.8,54,0.00,FEW,,0.00,WeatherDisplay:10.37,2013-08-20 16:10:00,
2013-08-20 12:15:00,73.8,56.1,30.89,West,260,5.8,5.8,54,0.00,FEW,,0.00,WeatherDisplay:10.37,2013-08-20 16:15:00,
2013-08-20 12:20:00,74.1,56.4,30.80,West,260,5.8,5.8,54,0.00,FEW,,0.00,WeatherDisplay:10.37,2013-08-20 16:20:00,
2013-08-20 12:25:00,74.3,56.6,30.80,West,260,5.8,5.8,54,0.00,FEW,,0.00,WeatherDisplay:10.37,2013-08-20 16:25:00,
2013-08-20 12:30:00,74.5,56.7,30.80,West,260,5.8,5.8,54,0.00,FEW,,0.00,WeatherDisplay:10.37,2013-08-20 16:30:00,
2013-08-20 12:35:00,74.5,56.7,30.77,West,260,5.8,5.8,54,0.00,FEW,,0.00,WeatherDisplay:10.37,2013-08-20 16:35:00,
2013-08-20 12:40:00,74.7,56.9,30.77,West,260,5.8,5.8,54,0.00,FEW,,0.00,WeatherDisplay:10.37,2013-08-20 16:40:00,
2013-08-20 12:45:00,74.8,57.1,30.77,West,260,5.8,5.8,54,0.00,FEW,,0.00,WeatherDisplay:10.37,2013-08-20 16:45:00,
2013-08-20 12:50:00,75.2,57.4,30.71,West,260,5.8,5.8,54,0.00,FEW,,0.00,WeatherDisplay:10.37,2013-08-20 16:50:00,
2013-08-20 12:55:00,75.2,57.4,30.71,West,260,5.8,5.8,54,0.00,FEW,,0.00,WeatherDisplay:10.37,2013-08-20 16:55:00,
2013-08-20 13:00:00,75.6,55.6,30.71,West,260,5.8,5.8,50,0.00,FEW,,0.00,WeatherDisplay:10.37,2013-08-20 17:00:00,
2013-08-20 13:05:00,75.7,55.8,30.68,West,260,5.8,5.8,50,0.00,FEW,,0.00,WeatherDisplay:10.37,2013-08-20 17:05:00,
2013-08-20 13:10:00,75.7,55.8,30.68,West,260,5.8,5.8,50,0.00,FEW,,0.00,WeatherDisplay:10.37,2013-08-20 17:10:00,
2013-08-20 13:15:00,76.1,56.1,30.68,West,260,5.8,5.8,50,0.00,FEW,,0.00,WeatherDisplay:10.37,2013-08-20 17:15:00,
2013-08-20 13:20:00,76.5,56.4,30.62,West,260,5.8,5.8,50,0.00,FEW,,0.00,WeatherDisplay:10.37,2013-08-20 17:20:00,
2013-08-20 13:25:00,76.1,56.1,30.62,West,260,5.8,5.8,50,0.00,FEW,,0.00,WeatherDisplay:10.37,2013-08-20 17:25:00,
2013-08-20 13:30:00,76.1,56.1,30.62,West,260,5.8,5.8,50,0.00,FEW,,0.00,WeatherDisplay:10.37,2013-08-20 17:30:00,
2013-08-20 13:35:00,75.9,55.9,30.59,West,260,5.8,5.8,50,0.00,FEW,,0.00,WeatherDisplay:10.37,2013-08-20 17:35:00,
2013-08-20 13:40:00,75.9,55.9,30.59,West,260,5.8,5.8,50,0.00,FEW,,0.00,WeatherDisplay:10.37,2013-08-20 17:40:00,
2013-08-20 13:45:00,76.1,56.1,30.59,West,260,5.8,5.8,50,0.00,FEW,,0.00,WeatherDisplay:10.37,2013-08-20 17:45:00,
2013-08-20 13:50:00,76.3,56.3,30.57,West,260,5.8,5.8,50,0.00,FEW,,0.00,WeatherDisplay:10.37,2013-08-20 17:50:00,
2013-08-20 13:55:00,76.5,56.4,30.57,West,260,5.8,5.8,50,0.00,FEW,,0.00,WeatherDisplay:10.37,2013-08-20 17:55:00,
2013-08-20 14:00:00,76.5,56.4,30.57,West,260,5.8,5.8,50,0.00,FEW,,0.00,WeatherDisplay:10.37,2013-08-20 18:00:00,
2013-08-20 14:05:00,76.5,56.4,30.54,West,260,5.8,5.8,50,0.00,FEW,,0.00,WeatherDisplay:10.37,2013-08-20 18:05:00,
2013-08-20 14:10:00,76.3,56.3,30.54,West,260,5.8,5.8,50,0.00,FEW,,0.00,WeatherDisplay:10.37,2013-08-20 18:10:00,
2013-08-20 14:15:00,75.9,53.0,30.54,West,280,8.1,8.1,45,0.00,SCT,,0.00,WeatherDisplay:10.37,2013-08-20 18:15:00,
2013-08-20 14:20:00,75.9,53.0,30.54,West,280,8.1,8.1,45,0.00,SCT,,0.00,WeatherDisplay:10.37,2013-08-20 18:20:00,
2013-08-20 14:25:00,76.5,53.5,30.54,West,280,8.1,8.1,45,0.00,SCT,,0.00,WeatherDisplay:10.37,2013-08-20 18:25:00,
2013-08-20 14:30:00,76.6,53.7,30.54,West,280,8.1,8.1,45,0.00,SCT,,0.00,WeatherDisplay:10.37,2013-08-20 18:30:00,
2013-08-20 14:35:00,76.6,53.7,30.51,West,280,8.1,8.1,45,0.00,SCT,,0.00,WeatherDisplay:10.37,2013-08-20 18:35:00,
2013-08-20 14:40:00,77.0,54.0,30.51,West,280,8.1,8.1,45,0.00,SCT,,0.00,WeatherDisplay:10.37,2013-08-20 18:40:00,
2013-08-20 14:45:00,76.8,53.9,30.51,West,280,8.1,8.1,45,0.00,SCT,,0.00,WeatherDisplay:10.37,2013-08-20 18:45:00,
2013-08-20 14:50:00,77.2,54.2,30.48,West,280,8.1,8.1,45,0.00,SCT,,0.00,WeatherDisplay:10.37,2013-08-20 18:50:00,
2013-08-20 14:55:00,77.2,54.2,30.48,West,280,8.1,8.1,45,0.00,SCT,,0.00,WeatherDisplay:10.37,2013-08-20 18:55:00,
2013-08-20 15:00:00,77.4,51.8,30.48,WNW,300,15.0,15.0,41,0.00,FEW,,0.00,WeatherDisplay:10.37,2013-08-20 19:00:00,
2013-08-20 15:05:00,77.2,51.7,30.48,WNW,300,15.0,15.0,41,0.00,FEW,,0.00,WeatherDisplay:10.37,2013-08-20 19:05:00,
2013-08-20 15:10:00,77.7,52.1,30.48,WNW,300,15.0,15.0,41,0.00,FEW,,0.00,WeatherDisplay:10.37,2013-08-20 19:10:00,
2013-08-20 15:15:00,77.5,52.0,30.48,WNW,300,15.0,15.0,41,0.00,FEW,,0.00,WeatherDisplay:10.37,2013-08-20 19:15:00,
2013-08-20 15:20:00,77.9,52.3,30.45,WNW,300,15.0,15.0,41,0.00,FEW,,0.00,WeatherDisplay:10.37,2013-08-20 19:20:00,
2013-08-20 15:25:00,77.7,52.1,30.45,WNW,300,15.0,15.0,41,0.00,FEW,,0.00,WeatherDisplay:10.37,2013-08-20 19:25:00,
2013-08-20 15:30:00,77.4,51.8,30.45,WNW,300,15.0,15.0,41,0.00,FEW,,0.00,WeatherDisplay:10.37,2013-08-20 19:30:00,
2013-08-20 15:35:00,77.4,51.8,30.42,WNW,300,15.0,15.0,41,0.00,FEW,,0.00,WeatherDisplay:10.37,2013-08-20 19:35:00,
2013-08-20 15:40:00,77.9,52.3,30.42,WNW,300,15.0,15.0,41,0.00,FEW,,0.00,WeatherDisplay:10.37,2013-08-20 19:40:00,
2013-08-20 15:45:00,78.1,52.5,30.42,WNW,300,15.0,15.0,41,0.00,FEW,,0.00,WeatherDisplay:10.37,2013-08-20 19:45:00,
2013-08-20 15:50:00,77.9,52.3,30.42,WNW,300,15.0,15.0,41,0.00,FEW,,0.00,WeatherDisplay:10.37,2013-08-20 19:50:00,
2013-08-20 15:55:00,78.1,52.5,30.42,WNW,300,15.0,15.0,41,0.00,FEW,,0.00,WeatherDisplay:10.37,2013-08-20 19:55:00,
2013-08-20 16:00:00,77.9,53.0,30.42,NW,310,11.5,15.0,42,0.00,FEW,,0.00,WeatherDisplay:10.37,2013-08-20 20:00:00,
2013-08-20 16:05:00,77.5,52.6,30.39,NW,310,11.5,11.5,42,0.00,FEW,,0.00,WeatherDisplay:10.37,2013-08-20 20:05:00,
2013-08-20 16:10:00,77.5,52.6,30.39,NW,310,11.5,11.5,42,0.00,FEW,,0.00,WeatherDisplay:10.37,2013-08-20 20:10:00,
2013-08-20 16:15:00,77.7,52.8,30.39,NW,310,11.5,11.5,42,0.00,FEW,,0.00,WeatherDisplay:10.37,2013-08-20 20:15:00,
2013-08-20 16:20:00,77.7,52.8,30.39,NW,310,11.5,11.5,42,0.00,FEW,,0.00,WeatherDisplay:10.37,2013-08-20 20:20:00,
2013-08-20 16:25:00,77.7,52.8,30.39,NW,310,11.5,11.5,42,0.00,FEW,,0.00,WeatherDisplay:10.37,2013-08-20 20:25:00,
2013-08-20 16:30:00,77.4,52.5,30.39,NW,310,11.5,11.5,42,0.00,FEW,,0.00,WeatherDisplay:10.37,2013-08-20 20:30:00,
2013-08-20 16:35:00,77.7,52.8,30.36,NW,310,11.5,11.5,42,0.00,FEW,,0.00,WeatherDisplay:10.37,2013-08-20 20:35:00,
2013-08-20 16:40:00,77.5,52.6,30.36,NW,310,11.5,11.5,42,0.00,FEW,,0.00,WeatherDisplay:10.37,2013-08-20 20:40:00,
2013-08-20 16:45:00,77.5,52.6,30.36,NW,310,11.5,11.5,42,0.00,FEW,,0.00,WeatherDisplay:10.37,2013-08-20 20:45:00,
2013-08-20 16:50:00,77.5,52.6,30.36,NW,310,11.5,11.5,42,0.00,FEW,,0.00,WeatherDisplay:10.37,2013-08-20 20:50:00,
2013-08-20 16:55:00,77.5,52.6,30.36,NW,310,11.5,11.5,42,0.00,FEW,,0.00,WeatherDisplay:10.37,2013-08-20 20:55:00,
2013-08-20 17:00:00,77.4,52.5,30.36,WNW,300,10.4,11.5,42,0.00,FEW,,0.00,WeatherDisplay:10.37,2013-08-20 21:00:00,
2013-08-20 17:05:00,77.4,52.5,30.36,WNW,300,10.4,10.4,42,0.00,FEW,,0.00,WeatherDisplay:10.37,2013-08-20 21:05:00,
2013-08-20 17:10:00,77.4,52.5,30.36,WNW,300,10.4,10.4,42,0.00,FEW,,0.00,WeatherDisplay:10.37,2013-08-20 21:10:00,
2013-08-20 17:15:00,77.7,52.8,30.36,WNW,300,10.4,10.4,42,0.00,FEW,,0.00,WeatherDisplay:10.37,2013-08-20 21:15:00,
2013-08-20 17:20:00,77.4,52.5,30.33,WNW,300,10.4,10.4,42,0.00,FEW,,0.00,WeatherDisplay:10.37,2013-08-20 21:20:00,
2013-08-20 17:25:00,76.8,52.0,30.33,WNW,300,10.4,10.4,42,0.00,FEW,,0.00,WeatherDisplay:10.37,2013-08-20 21:25:00,
2013-08-20 17:30:00,77.0,52.1,30.33,WNW,300,10.4,10.4,42,0.00,FEW,,0.00,WeatherDisplay:10.37,2013-08-20 21:30:00,
2013-08-20 17:35:00,77.2,52.3,30.33,WNW,300,10.4,10.4,42,0.00,FEW,,0.00,WeatherDisplay:10.37,2013-08-20 21:35:00,
2013-08-20 17:40:00,77.2,52.3,30.33,WNW,300,10.4,10.4,42,0.00,FEW,,0.00,WeatherDisplay:10.37,2013-08-20 21:40:00,
2013-08-20 17:45:00,76.8,52.0,30.33,WNW,300,10.4,10.4,42,0.00,FEW,,0.00,WeatherDisplay:10.37,2013-08-20 21:45:00,
2013-08-20 17:50:00,77.0,52.1,30.33,WNW,300,10.4,10.4,42,0.00,FEW,,0.00,WeatherDisplay:10.37,2013-08-20 21:50:00,
2013-08-20 17:55:00,76.8,52.0,30.33,WNW,300,10.4,10.4,42,0.00,FEW,,0.00,WeatherDisplay:10.37,2013-08-20 21:55:00,
2013-08-20 18:00:00,76.6,54.9,30.33,West,280,8.1,10.4,47,0.00,CLR,,0.00,WeatherDisplay:10.37,2013-08-20 22:00:00,
2013-08-20 18:05:00,76.3,54.6,30.33,West,280,8.1,8.1,47,0.00,CLR,,0.00,WeatherDisplay:10.37,2013-08-20 22:05:00,
2013-08-20 18:10:00,76.1,54.4,30.33,West,280,8.1,8.1,47,0.00,CLR,,0.00,WeatherDisplay:10.37,2013-08-20 22:10:00,
2013-08-20 18:15:00,75.9,54.2,30.33,West,280,8.1,8.1,47,0.00,CLR,,0.00,WeatherDisplay:10.37,2013-08-20 22:15:00,
2013-08-20 18:20:00,75.7,54.1,30.33,West,280,8.1,8.1,47,0.00,CLR,,0.00,WeatherDisplay:10.37,2013-08-20 22:20:00,
2013-08-20 18:25:00,75.7,54.1,30.33,West,280,8.1,8.1,47,0.00,CLR,,0.00,WeatherDisplay:10.37,2013-08-20 22:25:00,
2013-08-20 18:30:00,75.6,53.9,30.33,West,280,8.1,8.1,47,0.00,CLR,,0.00,WeatherDisplay:10.37,2013-08-20 22:30:00,
2013-08-20 18:35:00,75.4,53.7,30.33,West,280,8.1,8.1,47,0.00,CLR,,0.00,WeatherDisplay:10.37,2013-08-20 22:35:00,
2013-08-20 18:40:00,75.4,53.7,30.33,West,280,8.1,8.1,47,0.00,CLR,,0.00,WeatherDisplay:10.37,2013-08-20 22:40:00,
2013-08-20 18:45:00,75.2,53.6,30.33,West,280,8.1,8.1,47,0.00,CLR,,0.00,WeatherDisplay:10.37,2013-08-20 22:45:00,
2013-08-20 18:50:00,75.0,53.4,30.33,West,280,8.1,8.1,47,0.00,CLR,,0.00,WeatherDisplay:10.37,2013-08-20 22:50:00,
2013-08-20 18:55:00,74.7,53.1,30.33,West,280,8.1,8.1,47,0.00,CLR,,0.00,WeatherDisplay:10.37,2013-08-20 22:55:00,
2013-08-20 19:00:00,74.7,56.9,30.33,West,280,5.8,8.1,54,0.00,CLR,,0.00,WeatherDisplay:10.37,2013-08-20 23:00:00,
2013-08-20 19:05:00,74.3,56.6,30.30,West,280,5.8,5.8,54,0.00,CLR,,0.00,WeatherDisplay:10.37,2013-08-20 23:05:00,
2013-08-20 19:10:00,74.1,56.4,30.30,West,280,5.8,5.8,54,0.00,CLR,,0.00,WeatherDisplay:10.37,2013-08-20 23:10:00,
2013-08-20 19:15:00,73.9,56.2,30.30,West,280,5.8,5.8,54,0.00,CLR,,0.00,WeatherDisplay:10.37,2013-08-20 23:15:00,
2013-08-20 19:20:00,73.8,56.1,30.30,West,280,5.8,5.8,54,0.00,CLR,,0.00,WeatherDisplay:10.37,2013-08-20 23:20:00,
2013-08-20 19:25:00,73.6,55.9,30.30,West,280,5.8,5.8,54,0.00,CLR,,0.00,WeatherDisplay:10.37,2013-08-20 23:25:00,
2013-08-20 19:30:00,73.4,55.7,30.30,West,280,5.8,5.8,54,0.00,CLR,,0.00,WeatherDisplay:10.37,2013-08-20 23:30:00,
2013-08-20 19:35:00,73.2,55.6,30.06,West,280,5.8,5.8,54,0.00,CLR,,0.00,WeatherDisplay:10.37,2013-08-20 23:35:00,
2013-08-20 19:40:00,73.0,55.4,30.06,West,280,5.8,5.8,54,0.00,CLR,,0.00,WeatherDisplay:10.37,2013-08-20 23:40:00,
2013-08-20 19:45:00,72.9,55.2,30.06,West,280,5.8,5.8,54,0.00,CLR,,0.00,WeatherDisplay:10.37,2013-08-20 23:45:00,
2013-08-20 19:50:00,72.7,55.1,30.06,West,280,5.8,5.8,54,0.00,CLR,,0.00,WeatherDisplay:10.37,2013-08-20 23:50:00,
2013-08-20 19:55:00,72.3,54.7,30.06,West,280,5.8,5.8,54,0.00,CLR,,0.00,WeatherDisplay:10.37,2013-08-20 23:55:00,
2013-08-20 20:00:00,72.1,57.9,30.06,WSW,250,3.5,5.8,61,0.00,CLR,,0.00,WeatherDisplay:10.37,2013-08-21 00:00:00,
2013-08-20 20:05:00,72.1,57.9,30.06,WSW,250,3.5,3.5,61,0.00,CLR,,0.00,WeatherDisplay:10.37,2013-08-21 00:05:00,
2013-08-20 20:10:00,71.8,57.6,30.06,WSW,250,3.5,3.5,61,0.00,CLR,,0.00,WeatherDisplay:10.37,2013-08-21 00:10:00,
2013-08-20 20:15:00,71.4,57.3,30.06,WSW,250,3.5,3.5,61,0.00,CLR,,0.00,WeatherDisplay:10.37,2013-08-21 00:15:00,
2013-08-20 20:20:00,71.4,57.3,30.06,WSW,250,3.5,3.5,61,0.00,CLR,,0.00,WeatherDisplay:10.37,2013-08-21 00:20:00,
2013-08-20 20:25:00,71.2,57.1,30.06,WSW,250,3.5,3.5,61,0.00,CLR,,0.00,WeatherDisplay:10.37,2013-08-21 00:25:00,
2013-08-20 20:30:00,71.1,56.9,30.06,WSW,250,3.5,3.5,61,0.00,CLR,,0.00,WeatherDisplay:10.37,2013-08-21 00:30:00,
2013-08-20 20:35:00,70.9,56.8,30.06,WSW,250,3.5,3.5,61,0.00,CLR,,0.00,WeatherDisplay:10.37,2013-08-21 00:35:00,
2013-08-20 20:40:00,70.9,56.8,30.06,WSW,250,3.5,3.5,61,0.00,CLR,,0.00,WeatherDisplay:10.37,2013-08-21 00:40:00,
2013-08-20 20:45:00,70.7,56.6,30.06,WSW,250,3.5,3.5,61,0.00,CLR,,0.00,WeatherDisplay:10.37,2013-08-21 00:45:00,
2013-08-20 20:50:00,70.5,56.4,30.06,WSW,250,3.5,3.5,61,0.00,CLR,,0.00,WeatherDisplay:10.37,2013-08-21 00:50:00,
2013-08-20 20:55:00,70.5,56.4,30.06,WSW,250,3.5,3.5,61,0.00,CLR,,0.00,WeatherDisplay:10.37,2013-08-21 00:55:00,
2013-08-20 21:00:00,70.3,56.2,30.06,WSW,250,3.5,3.5,61,0.00,CLR,,0.00,WeatherDisplay:10.37,2013-08-21 01:00:00,
2013-08-20 21:07:00,70.3,56.2,30.06,WSW,250,3.5,3.5,61,0.00,CLR,,0.00,WeatherDisplay:10.37,2013-08-21 01:07:00,
2013-08-20 21:12:00,70.3,56.2,30.06,WSW,250,3.5,3.5,61,0.00,CLR,,0.00,WeatherDisplay:10.37,2013-08-21 01:12:00,
2013-08-20 21:17:00,70.2,56.1,30.06,WSW,250,3.5,3.5,61,0.00,CLR,,0.00,WeatherDisplay:10.37,2013-08-21 01:17:00,
2013-08-20 21:20:00,70.2,56.1,30.12,WSW,250,3.5,3.5,61,0.00,CLR,,0.00,WeatherDisplay:10.37,2013-08-21 01:20:00,
2013-08-20 21:25:00,69.8,55.7,30.12,WSW,250,3.5,3.5,61,0.00,CLR,,0.00,WeatherDisplay:10.37,2013-08-21 01:25:00,
2013-08-20 21:30:00,69.8,55.7,30.12,WSW,250,3.5,3.5,61,0.00,CLR,,0.00,WeatherDisplay:10.37,2013-08-21 01:30:00,
2013-08-20 21:35:00,69.8,57.9,30.09,WSW,250,0.0,0.0,66,0.00,CLR,,0.00,WeatherDisplay:10.37,2013-08-21 01:35:00,
2013-08-20 21:40:00,69.6,57.8,30.09,WSW,250,0.0,0.0,66,0.00,CLR,,0.00,WeatherDisplay:10.37,2013-08-21 01:40:00,
2013-08-20 21:45:00,69.6,57.8,30.09,WSW,250,0.0,0.0,66,0.00,CLR,,0.00,WeatherDisplay:10.37,2013-08-21 01:45:00,
2013-08-20 21:50:00,69.4,57.6,30.09,WSW,250,0.0,0.0,66,0.00,CLR,,0.00,WeatherDisplay:10.37,2013-08-21 01:50:00,
2013-08-20 21:55:00,69.3,57.4,30.09,WSW,250,0.0,0.0,66,0.00,CLR,,0.00,WeatherDisplay:10.37,2013-08-21 01:55:00,
2013-08-20 22:00:00,69.3,57.4,30.09,WSW,250,0.0,0.0,66,0.00,CLR,,0.00,WeatherDisplay:10.37,2013-08-21 02:00:00,
2013-08-20 22:05:00,69.1,58.9,30.18,SSE,160,3.5,3.5,70,0.00,CLR,,0.00,WeatherDisplay:10.37,2013-08-21 02:05:00,
2013-08-20 22:10:00,69.1,58.9,30.18,SSE,160,3.5,3.5,70,0.00,CLR,,0.00,WeatherDisplay:10.37,2013-08-21 02:10:00,
2013-08-20 22:15:00,68.9,58.7,30.18,SSE,160,3.5,3.5,70,0.00,CLR,,0.00,WeatherDisplay:10.37,2013-08-21 02:15:00,
2013-08-20 22:20:00,68.9,58.7,30.18,SSE,160,3.5,3.5,70,0.00,CLR,,0.00,WeatherDisplay:10.37,2013-08-21 02:20:00,
2013-08-20 22:25:00,68.7,58.5,30.18,SSE,160,3.5,3.5,70,0.00,CLR,,0.00,WeatherDisplay:10.37,2013-08-21 02:25:00,
2013-08-20 22:30:00,68.7,58.5,30.18,SSE,160,3.5,3.5,70,0.00,CLR,,0.00,WeatherDisplay:10.37,2013-08-21 02:30:00,
2013-08-20 22:35:00,68.5,58.4,30.21,SSE,160,3.5,3.5,70,0.00,CLR,,0.00,WeatherDisplay:10.37,2013-08-21 02:35:00,
2013-08-20 22:40:00,68.5,58.4,30.21,SSE,160,3.5,3.5,70,0.00,CLR,,0.00,WeatherDisplay:10.37,2013-08-21 02:40:00,
2013-08-20 22:45:00,68.4,58.2,30.21,SSE,160,3.5,3.5,70,0.00,CLR,,0.00,WeatherDisplay:10.37,2013-08-21 02:45:00,
2013-08-20 22:50:00,68.5,58.4,30.18,SSE,160,3.5,3.5,70,0.00,CLR,,0.00,WeatherDisplay:10.37,2013-08-21 02:50:00,
2013-08-20 22:55:00,68.4,58.2,30.18,SSE,160,3.5,3.5,70,0.00,CLR,,0.00,WeatherDisplay:10.37,2013-08-21 02:55:00,
2013-08-20 23:00:00,68.4,58.2,30.18,SSE,160,3.5,3.5,70,0.00,CLR,,0.00,WeatherDisplay:10.37,2013-08-21 03:00:00,
2013-08-20 23:05:00,68.4,58.2,30.21,SSE,160,3.5,3.5,70,0.00,CLR,,0.00,WeatherDisplay:10.37,2013-08-21 03:05:00,
2013-08-20 23:10:00,68.4,58.2,30.21,SSE,160,3.5,3.5,70,0.00,CLR,,0.00,WeatherDisplay:10.37,2013-08-21 03:10:00,
2013-08-20 23:15:00,68.0,57.8,30.21,SSE,160,3.5,3.5,70,0.00,CLR,,0.00,WeatherDisplay:10.37,2013-08-21 03:15:00,
2013-08-20 23:20:00,68.0,57.8,30.18,SSE,160,0.0,0.0,70,0.00,CLR,,0.00,WeatherDisplay:10.37,2013-08-21 03:20:00,
2013-08-20 23:25:00,67.8,57.7,30.18,SSE,160,0.0,0.0,70,0.00,CLR,,0.00,WeatherDisplay:10.37,2013-08-21 03:25:00,
2013-08-20 23:30:00,67.8,57.7,30.18,SSE,160,0.0,0.0,70,0.00,CLR,,0.00,WeatherDisplay:10.37,2013-08-21 03:30:00,
2013-08-20 23:35:00,68.2,58.0,30.27,SSE,160,0.0,0.0,70,0.00,CLR,,0.00,WeatherDisplay:10.37,2013-08-21 03:35:00,
2013-08-20 23:40:00,67.6,57.5,30.27,SSE,160,0.0,0.0,70,0.00,CLR,,0.00,WeatherDisplay:10.37,2013-08-21 03:40:00,
2013-08-20 23:45:00,67.6,57.5,30.27,SSE,160,0.0,0.0,70,0.00,CLR,,0.00,WeatherDisplay:10.37,2013-08-21 03:45:00,
2013-08-20 23:50:00,67.6,57.5,30.30,SSE,160,0.0,0.0,70,0.00,CLR,,0.00,WeatherDisplay:10.37,2013-08-21 03:50:00,
2013-08-20 23:55:00,67.5,57.3,30.30,SSE,160,0.0,0.0,70,0.00,CLR,,0.00,WeatherDisplay:10.37,2013-08-21 03:55:00,